Weather History for Athens, OH

Change the Weather History Date:

Sunday, November 18, 2012

  Actual Average (KPKB) Record (KPKB)
Temperature  
Mean Temperature 40 °F 44 °F  
Max Temperature 59 °F 54 °F 81 °F (1921)
Min Temperature 22 °F 35 °F 14 °F (1959)
Degree Days  
Heating Degree Days 24 21  
Month to date heating degree days 316  
Since 1 July heating degree days 710  
Cooling Degree Days 0 0  
Month to date cooling degree days 0  
Year to date cooling degree days 953  
Moisture  
Dew Point 25 °F    
Average Humidity 67    
Maximum Humidity 91    
Minimum Humidity 26    
Precipitation  
Precipitation 0.00 in 0.12 in 1.64 in (1957)
Month to date precipitation 1.97  
Year to date precipitation 36.70  
Sea Level Pressure  
Sea Level Pressure 30.44 in    
Wind  
Wind Speed 1 mph (ENE)    
Max Wind Speed 6 mph    
Max Gust Speed -    
Visibility 10 miles    
Events      
T = Trace of Precipitation, MM = Missing Value Source: NWS Daily Summary

Daily Weather History Graph

Daily Weather History Graph

Search for Another Location

Airport:

Trip Planner

Search our weather history database for the weather conditions in past years. The results will help you decide how hot, cold, wet, or windy it might be!

Date:

Astronomy

Nov. 18, 2012 Rise Set
Actual Time 7:16 AM EST 5:11 PM EST
Civil Twilight 6:47 AM EST 5:40 PM EST
Nautical Twilight 6:14 AM EST 6:13 PM EST
Astronomical Twilight 5:42 AM EST 6:45 PM EST
Moon 11:42 AM EST (11/18) 10:29 PM EST (11/18)
Length of Visible Light 10h 53m
Length of Day
9h 55m
Waxing Crescent, 30% of the Moon is Illuminated
Nov 18
Waxing Crescent
Nov 20
First Quarter
Nov 28
Full
Dec 6
Last Quarter
Dec 13
New

Hourly Weather History & Observations

Time (EST) Temp. Dew Point Humidity Pressure Visibility Wind Dir Wind Speed Gust Speed Precip Events Conditions
12:15 AM 28.4 °F 24.1 °F 84% 30.47 in 10.0 mi Calm Calm - N/A   Clear
12:35 AM 29.1 °F 24.8 °F 84% 30.47 in 10.0 mi Calm Calm - N/A   Clear
12:55 AM 27.0 °F 22.8 °F 84% 30.47 in 10.0 mi Calm Calm - N/A   Clear
1:15 AM 28.2 °F 24.8 °F 87% 30.47 in 10.0 mi Calm Calm - N/A   Clear
1:35 AM 27.5 °F 23.9 °F 86% 30.46 in 10.0 mi Calm Calm - N/A   Clear
1:55 AM 27.0 °F 23.9 °F 88% 30.47 in 10.0 mi Calm Calm - N/A   Clear
2:15 AM 26.6 °F 23.2 °F 87% 30.47 in 10.0 mi Calm Calm - N/A   Clear
2:35 AM 26.6 °F 23.2 °F 87% 30.47 in 10.0 mi Calm Calm - N/A   Clear
3:15 AM 26.2 °F 23.0 °F 88% 30.47 in 10.0 mi Calm Calm - N/A   Clear
3:35 AM 25.2 °F 21.9 °F 87% 30.47 in 10.0 mi Calm Calm - N/A   Clear
3:55 AM 25.7 °F 23.0 °F 89% 30.47 in 10.0 mi Calm Calm - N/A   Clear
4:15 AM 25.7 °F 23.0 °F 89% 30.47 in 10.0 mi Calm Calm - N/A   Clear
4:35 AM 25.2 °F 23.0 °F 91% 30.47 in 10.0 mi Calm Calm - N/A   Clear
4:55 AM 24.3 °F 21.4 °F 89% 30.47 in 10.0 mi Calm Calm - N/A   Clear
5:15 AM 23.9 °F 21.2 °F 89% 30.48 in 10.0 mi Calm Calm - N/A   Clear
5:35 AM 23.9 °F 21.4 °F 90% 30.47 in 10.0 mi Calm Calm - N/A   Clear
5:55 AM 24.3 °F 22.1 °F 91% 30.48 in 10.0 mi Calm Calm - N/A   Clear
6:15 AM 23.9 °F 21.4 °F 90% 30.47 in 10.0 mi Calm Calm - N/A   Clear
6:35 AM 24.1 °F 21.7 °F 91% 30.48 in 10.0 mi Calm Calm - N/A   Clear
6:55 AM 23.9 °F 21.4 °F 90% 30.48 in 10.0 mi Calm Calm - N/A   Clear
7:15 AM 22.6 °F 20.1 °F 90% 30.49 in 10.0 mi Calm Calm - N/A   Clear
7:35 AM 23.0 °F 20.7 °F 91% 30.48 in 10.0 mi Calm Calm - N/A   Clear
7:55 AM 23.7 °F 21.0 °F 89% 30.48 in 10.0 mi Calm Calm - N/A   Clear
8:15 AM 24.4 °F 21.6 °F 89% 30.49 in 10.0 mi Calm Calm - N/A   Clear
8:35 AM 27.1 °F 24.3 °F 89% 30.49 in 10.0 mi Calm Calm - N/A   Clear
8:55 AM 29.8 °F 26.8 °F 88% 30.48 in 10.0 mi Calm Calm - N/A   Clear
9:15 AM 31.8 °F 28.2 °F 87% 30.49 in 10.0 mi Calm Calm - N/A   Clear
9:35 AM 34.7 °F 29.8 °F 82% 30.48 in 10.0 mi Calm Calm - N/A   Clear
10:15 AM 41.2 °F 30.6 °F 66% 30.49 in 10.0 mi Calm Calm - N/A   Clear
10:35 AM 46.0 °F 29.7 °F 53% 30.48 in 10.0 mi Calm Calm - N/A   Clear
10:55 AM 50.2 °F 25.9 °F 39% 30.48 in 10.0 mi SSE 5.8 mph - N/A   Clear
11:15 AM 51.6 °F 25.0 °F 36% 30.47 in 10.0 mi SSE 5.8 mph - N/A   Clear
11:35 AM 52.2 °F 25.2 °F 35% 30.47 in 10.0 mi Calm Calm - N/A   Clear
11:55 AM 54.0 °F 25.3 °F 33% 30.46 in 10.0 mi Calm Calm - N/A   Clear
12:15 PM 54.7 °F 25.3 °F 32% 30.45 in 10.0 mi South 3.5 mph - N/A   Clear
12:35 PM 54.9 °F 26.6 °F 34% 30.43 in 10.0 mi Calm Calm - N/A   Clear
12:55 PM 55.9 °F 26.1 °F 32% 30.42 in 10.0 mi NNE 3.5 mph - N/A   Clear
1:15 PM 56.3 °F 25.5 °F 31% 30.41 in 10.0 mi NNE 4.6 mph - N/A   Clear
1:35 PM 56.7 °F 26.4 °F 31% 30.41 in 10.0 mi North 5.8 mph - N/A   Clear
1:55 PM 56.8 °F 25.9 °F 30% 30.40 in 10.0 mi NNE 3.5 mph - N/A   Clear
2:15 PM 58.3 °F 26.4 °F 30% 30.40 in 10.0 mi Calm Calm - N/A   Clear
2:35 PM 59.0 °F 24.8 °F 27% 30.40 in 10.0 mi ENE 5.8 mph - N/A   Clear
2:55 PM 58.8 °F 24.8 °F 27% 30.40 in 10.0 mi Calm Calm - N/A   Clear
3:15 PM 59.9 °F 24.3 °F 26% 30.39 in 10.0 mi East 3.5 mph - N/A   Clear
4:15 PM 58.5 °F 25.3 °F 28% 30.39 in 10.0 mi ENE 3.5 mph - N/A   Clear
4:55 PM 56.5 °F 23.5 °F 28% 30.39 in 10.0 mi East 5.8 mph - N/A   Clear
5:35 PM 50.0 °F 22.5 °F 34% 30.39 in 10.0 mi East 4.6 mph - N/A   Clear
5:55 PM 46.9 °F 25.7 °F 44% 30.40 in 10.0 mi Calm Calm - N/A   Clear
6:15 PM 43.3 °F 26.6 °F 52% 30.40 in 10.0 mi Calm Calm - N/A   Clear
6:35 PM 42.8 °F 26.4 °F 52% 30.41 in 10.0 mi Calm Calm - N/A   Clear
6:55 PM 40.1 °F 26.8 °F 59% 30.40 in 10.0 mi Calm Calm - N/A   Clear
7:15 PM 38.3 °F 24.1 °F 57% 30.41 in 10.0 mi Calm Calm - N/A   Clear
7:35 PM 36.7 °F 25.5 °F 64% 30.41 in 10.0 mi Calm Calm - N/A   Clear
7:55 PM 36.1 °F 26.2 °F 67% 30.42 in 10.0 mi Calm Calm - N/A   Clear
8:15 PM 35.1 °F 25.2 °F 67% 30.41 in 10.0 mi Calm Calm - N/A   Clear
8:35 PM 34.0 °F 25.3 °F 71% 30.41 in 10.0 mi Calm Calm - N/A   Clear
8:55 PM 34.0 °F 25.5 °F 71% 30.41 in 10.0 mi Calm Calm - N/A   Clear
9:15 PM 32.0 °F 25.5 °F 77% 30.41 in 10.0 mi Calm Calm - N/A   Clear
9:35 PM 31.5 °F 26.1 °F 80% 30.41 in 10.0 mi Calm Calm - N/A   Clear
9:55 PM 32.0 °F 26.2 °F 79% 30.41 in 10.0 mi Calm Calm - N/A   Clear
10:15 PM 31.5 °F 25.5 °F 79% 30.41 in 10.0 mi Calm Calm - N/A   Clear
10:35 PM 30.6 °F 24.8 °F 79% 30.41 in 10.0 mi Calm Calm - N/A   Clear
10:55 PM 31.1 °F 24.8 °F 77% 30.40 in 10.0 mi Calm Calm - N/A   Clear
11:35 PM 30.7 °F 25.3 °F 80% 30.40 in 10.0 mi Calm Calm - N/A   Clear
11:55 PM 29.1 °F 24.8 °F 84% 30.40 in 10.0 mi Calm Calm - N/A   Clear